Time,TemperatureF,DewpointF,PressureIn,WindDirection,WindDirectionDegrees,WindSpeedMPH,WindSpeedGustMPH,Humidity,HourlyPrecipIn,Conditions,Clouds,dailyrainin,SolarRadiationWatts/m^2,SoftwareType,DateUTC
2013-03-13 00:22:00,6.0,1.0,-100.00,East,86,2.0,3.0,80,-99.99,,,-99.99,0.000000,,2013-03-13 08:22:00,
2013-03-13 01:22:00,4.0,-1.0,-100.00,East,89,0.0,2.0,80,-99.99,,,0.08,0.000000,,2013-03-13 09:22:00,
2013-03-13 02:22:00,2.0,-3.0,-100.00,ENE,70,1.0,3.0,80,-99.99,,,0.08,0.000000,,2013-03-13 10:22:00,
2013-03-13 03:12:00,1.0,-4.0,-100.00,East,92,1.0,2.0,79,-99.99,,,0.08,0.000000,,2013-03-13 11:12:00,
2013-03-13 03:22:00,1.0,-4.0,-100.00,East,92,1.0,2.0,79,-99.99,,,0.08,0.000000,,2013-03-13 11:22:00,
2013-03-13 04:22:00,0.0,-5.0,-100.00,East,81,1.0,2.0,79,-99.99,,,-99.99,0.000000,,2013-03-13 12:22:00,
2013-03-13 05:22:00,-1.0,-6.0,-100.00,East,84,1.0,2.0,78,-99.99,,,0.08,0.000000,,2013-03-13 13:22:00,
2013-03-13 06:21:00,-2.0,-7.0,-100.00,East,93,2.0,2.0,78,-99.99,,,0.08,0.000000,,2013-03-13 14:21:00,
2013-03-13 08:22:00,-4.0,-10.0,-100.00,East,98,1.0,2.0,76,-99.99,,,0.08,0.000000,,2013-03-13 16:22:00,
2013-03-13 09:22:00,-3.0,-8.0,-100.00,East,92,1.0,2.0,77,-99.99,,,0.08,6.000000,,2013-03-13 17:22:00,
2013-03-13 10:22:00,-1.0,-7.0,-100.00,East,90,1.0,2.0,76,-99.99,,,0.08,24.000000,,2013-03-13 18:22:00,
2013-03-13 11:22:00,11.0,5.0,-100.00,South,181,1.0,3.0,77,-99.99,,,0.08,112.000000,,2013-03-13 19:22:00,
2013-03-13 12:22:00,23.0,15.0,-100.00,WSW,241,3.0,6.0,71,-99.99,,,0.08,176.000000,,2013-03-13 20:22:00,
2013-03-13 12:32:00,23.0,15.0,-100.00,WSW,241,3.0,6.0,71,-99.99,,,0.08,176.000000,,2013-03-13 20:32:00,
2013-03-13 12:41:00,23.0,15.0,-100.00,WSW,241,3.0,6.0,71,-99.99,,,0.08,176.000000,,2013-03-13 20:41:00,
2013-03-13 12:52:00,23.0,15.0,-100.00,WSW,241,3.0,6.0,71,-99.99,,,0.08,176.000000,,2013-03-13 20:52:00,
2013-03-13 13:22:00,26.0,15.0,-100.00,West,279,3.0,6.0,62,0.00,,,0.08,183.000000,,2013-03-13 21:22:00,
2013-03-13 13:32:00,26.0,15.0,-100.00,West,279,3.0,6.0,62,0.00,,,0.08,183.000000,,2013-03-13 21:32:00,
2013-03-13 13:42:00,26.0,15.0,-100.00,West,279,3.0,6.0,62,0.00,,,0.08,183.000000,,2013-03-13 21:42:00,
2013-03-13 13:51:00,26.0,15.0,-100.00,West,279,3.0,6.0,62,0.00,,,0.08,183.000000,,2013-03-13 21:51:00,
2013-03-13 14:22:00,29.0,13.0,-100.00,SW,234,4.0,7.0,51,0.00,,,0.07,347.000000,,2013-03-13 22:22:00,
2013-03-13 14:32:00,29.0,13.0,-100.00,SW,234,4.0,7.0,51,0.00,,,0.07,347.000000,,2013-03-13 22:32:00,
2013-03-13 14:42:00,29.0,13.0,-100.00,SW,234,4.0,7.0,51,0.00,,,0.07,347.000000,,2013-03-13 22:42:00,
2013-03-13 14:52:00,29.0,13.0,-100.00,SW,234,4.0,7.0,51,0.00,,,0.07,347.000000,,2013-03-13 22:52:00,
2013-03-13 15:22:00,32.0,12.0,-100.00,WSW,246,3.0,7.0,43,0.00,,,0.05,415.000000,,2013-03-13 23:22:00,
2013-03-13 15:32:00,32.0,12.0,-100.00,WSW,246,3.0,7.0,43,0.00,,,0.05,415.000000,,2013-03-13 23:32:00,
2013-03-13 15:42:00,32.0,12.0,-100.00,WSW,246,3.0,7.0,43,0.00,,,0.05,415.000000,,2013-03-13 23:42:00,
2013-03-13 15:51:00,32.0,12.0,-100.00,WSW,246,3.0,7.0,43,0.00,,,0.05,415.000000,,2013-03-13 23:51:00,
2013-03-13 16:22:00,33.0,12.0,-100.00,WNW,286,3.0,6.0,42,0.00,,,0.03,366.000000,,2013-03-14 00:22:00,
2013-03-13 16:32:00,33.0,12.0,-100.00,WNW,286,3.0,6.0,42,0.00,,,0.03,366.000000,,2013-03-14 00:32:00,
2013-03-13 16:42:00,33.0,12.0,-100.00,WNW,286,3.0,6.0,42,0.00,,,0.03,366.000000,,2013-03-14 00:42:00,
2013-03-13 16:52:00,33.0,12.0,-100.00,WNW,286,3.0,6.0,42,0.00,,,0.03,366.000000,,2013-03-14 00:52:00,
2013-03-13 17:22:00,33.0,9.0,-100.00,West,278,4.0,7.0,36,0.00,,,0.02,334.000000,,2013-03-14 01:22:00,
2013-03-13 17:32:00,33.0,9.0,-100.00,West,278,4.0,7.0,36,0.00,,,0.02,334.000000,,2013-03-14 01:32:00,
2013-03-13 17:42:00,33.0,9.0,-100.00,West,278,4.0,7.0,36,0.00,,,0.02,334.000000,,2013-03-14 01:42:00,
2013-03-13 17:52:00,33.0,9.0,-100.00,West,278,4.0,7.0,36,0.00,,,0.02,334.000000,,2013-03-14 01:52:00,
2013-03-13 18:22:00,34.0,8.0,-100.00,WSW,248,2.0,6.0,33,0.00,,,0.01,249.000000,,2013-03-14 02:22:00,
2013-03-13 18:32:00,34.0,8.0,-100.00,WSW,248,2.0,6.0,33,0.00,,,0.01,249.000000,,2013-03-14 02:32:00,
2013-03-13 18:42:00,34.0,8.0,-100.00,WSW,248,2.0,6.0,33,0.00,,,0.01,249.000000,,2013-03-14 02:42:00,
2013-03-13 18:51:00,34.0,8.0,-100.00,WSW,248,2.0,6.0,33,0.00,,,0.01,249.000000,,2013-03-14 02:51:00,
2013-03-13 19:22:00,28.0,3.0,-100.00,NW,306,2.0,5.0,34,0.00,,,0.00,124.000000,,2013-03-14 03:22:00,
2013-03-13 19:32:00,28.0,3.0,-100.00,NW,306,2.0,5.0,34,0.00,,,0.00,124.000000,,2013-03-14 03:32:00,
2013-03-13 19:42:00,28.0,3.0,-100.00,NW,306,2.0,5.0,34,0.00,,,0.00,124.000000,,2013-03-14 03:42:00,
2013-03-13 19:52:00,28.0,3.0,-100.00,NW,306,2.0,5.0,34,0.00,,,0.00,124.000000,,2013-03-14 03:52:00,
2013-03-13 20:22:00,20.0,4.0,-100.00,NE,45,0.0,7.0,48,0.00,,,0.00,16.000000,,2013-03-14 04:22:00,
2013-03-13 20:32:00,20.0,4.0,-100.00,NE,45,0.0,7.0,48,0.00,,,0.00,16.000000,,2013-03-14 04:32:00,
2013-03-13 20:42:00,20.0,4.0,-100.00,NE,45,0.0,7.0,48,0.00,,,0.00,16.000000,,2013-03-14 04:42:00,
2013-03-13 20:52:00,20.0,4.0,-100.00,NE,45,0.0,7.0,48,0.00,,,0.00,16.000000,,2013-03-14 04:52:00,
2013-03-13 21:22:00,13.0,4.0,-100.00,East,91,0.0,3.0,68,0.00,,,0.00,1.000000,,2013-03-14 05:22:00,
2013-03-13 22:22:00,8.0,1.0,-100.00,NE,56,1.0,3.0,72,0.00,,,0.00,0.000000,,2013-03-14 06:22:00,
2013-03-13 23:22:00,7.0,0.0,-100.00,NNE,33,1.0,2.0,74,-99.99,,,0.00,0.000000,,2013-03-14 07:22:00,